[[{"header":{"parameterUnit":"m.s-1","parameterCategory":1,"la1":30.2991,"la2":30.254,"lo1":-89.0895,"lo2":-89.0444,"dy":0.0017,"dx":0.0017,"nx":28,"ny":28,"refTime":"2023-10-07T21:00:00:Z","depth":0,"parameterNumber":2,"parameterNumberName":"U-component_of_WINDS"},"data":[0,0,0,0,0,0,0,0,0,0,0,0,0,0,0,0,0,0,0,0,0,0,0,0,0,0,0,0,0,0,0,0,0,0,0,0,0,0,0,0,0,0,0,0,0,0,0,0,0,0,0,0,0,0,0,0,0,0,0.1887,0.1887,0,0.1873,0.1873,0.1872,0.1874,0.1874,0.1874,0.1874,0.1859,0.1859,0.1858,0,0,0,0,0,0,0,0,0,0,0,0,0,0.1917,0.1916,0.1887,0.1887,0.1887,0.1873,0.1873,0.1872,0.1874,0.1874,0.1874,0.1875,0.1859,0.1859,0.1858,0,0,0,0,0,0,0,0,0,0,0,0,0,0.1903,0.1916,0.1887,0.1886,0.1886,0.1873,0.1873,0.1872,0.1874,0.1874,0.1874,0.1875,0.186,0.1859,0.1858,0.1845,0,0,0.1855,0.1855,0,0,0,0,0,0,0,0,0.1904,0.1902,0.1886,0.1886,0.1886,0.1875,0.1877,0.1863,0.1874,0.1878,0.1874,0.1875,0.1864,0.1863,0.186,0.1845,0.1844,0.1855,0.1854,0.1854,0.1854,0,0,0,0,0,0,0,0.1905,0.1903,0.1881,0.1886,0.1886,0.1886,0.1885,0.1875,0.1869,0.1878,0.1878,0.1876,0.1864,0.186,0.1859,0.1844,0.1855,0.1854,0.1854,0.1853,0.182,0.1819,0,0,0,0,0,0,0.1906,0.1904,0.1882,0.1881,0.1896,0.1885,0.1884,0.1878,0.187,0.1869,0.1876,0.1876,0.1862,0.186,0.1859,0.1844,0.1854,0.1853,0.1853,0.182,0.182,0.1819,0,0,0,0,0,0,0.1907,0.1904,0.1883,0.1892,0.189,0.1885,0.1879,0.1878,0.1874,0.1868,0.1867,0.1873,0.1862,0.186,0.1849,0.1844,0.1853,0.1852,0.182,0.182,0.1819,0.1815,0,0,0,0,0,0,0.1908,0.1904,0.1899,0.1892,0.1889,0.1873,0.1878,0.1877,0.1873,0.1873,0.1865,0.1864,0.1862,0.185,0.1848,0.1843,0.1851,0.1821,0.182,0.182,0.1816,0.1814,0.1813,0,0,0,0,0,0.1909,0.1898,0.1899,0.1896,0.1883,0.1872,0.1871,0.1869,0.1872,0.1867,0.1864,0.1864,0.1845,0.1849,0.1847,0.1841,0.1821,0.182,0.182,0.1816,0.1815,0.1813,0,0,0,0,0,0,0.1904,0.1897,0.1898,0.1885,0.1879,0.1873,0.1866,0.1867,0.186,0.1861,0.1858,0.1857,0.1846,0.1842,0.1847,0.1829,0.1834,0.1832,0.1832,0.183,0.1829,0.183,0.185,0,0,0,0,0,0.1902,0.1894,0.1888,0.1877,0.1875,0.1871,0.1867,0.1866,0.186,0.1857,0.1853,0.1847,0.184,0.1835,0.1828,0.1816,0.1814,0.181,0.1809,0.1809,0.1807,0.1802,0.18,0.1817,0.1817,0.1817,0,0,0.1896,0.1892,0.1887,0.1876,0.1872,0.1864,0.1869,0.186,0.1855,0.1856,0.1845,0.1842,0.1836,0.1825,0.1819,0.1821,0.1803,0.1808,0.1807,0.1806,0.1801,0.1799,0.1798,0.1816,0.1816,0.1816,0,0,0.1882,0.1878,0.1869,0.1865,0.1858,0.1856,0.1854,0.1848,0.1846,0.1836,0.1837,0.1831,0.1818,0.1814,0.181,0.1797,0.1798,0.1795,0.1789,0.1783,0.1782,0.1781,0.1777,0.1775,0.1794,0.1794,0.1794,0,0.1876,0.1865,0.1864,0.1856,0.1852,0.1853,0.1844,0.184,0.1832,0.1829,0.1832,0.1817,0.1813,0.1801,0.1798,0.1795,0.1793,0.1795,0.1782,0.1781,0.178,0.1776,0.1775,0.1793,0.1793,0.1793,0.1793,0,0.1858,0.185,0.1844,0.1836,0.1832,0.1823,0.1821,0.1817,0.1817,0.1815,0.1805,0.1801,0.1793,0.179,0.179,0.1779,0.1781,0.1783,0.1787,0.1778,0.1774,0.1773,0.1793,0.1793,0.1793,0.1793,0,0,0.1839,0.1833,0.1831,0.1828,0.1822,0.1816,0.1808,0.1802,0.1798,0.1793,0.1787,0.1777,0.1779,0.1775,0.1775,0.177,0.1761,0.1773,0.1773,0.1771,0.1749,0.1748,0.1746,0.1762,0.1762,0.1761,0.175,0,0.1825,0.1811,0.1811,0.1798,0.1792,0.1794,0.1788,0.1784,0.1782,0.1777,0.1775,0.1768,0.1772,0.177,0.1765,0.1763,0.1757,0.1764,0.1756,0.1756,0.1757,0.1744,0.1742,0.1731,0.1749,0.1748,0.1748,0,0.1806,0.1801,0.1788,0.1785,0.1782,0.1776,0.1771,0.1765,0.1761,0.1761,0.1757,0.1758,0.1751,0.1756,0.1746,0.1751,0.1748,0.1747,0.1747,0.1746,0.1751,0.1742,0.1728,0.1726,0.1746,0.1746,0.1746,0,0.1794,0.1784,0.1775,0.1773,0.1769,0.1765,0.1763,0.1759,0.1756,0.1751,0.1749,0.1744,0.1741,0.1737,0.1737,0.174,0.1727,0.1732,0.1727,0.1727,0.1723,0.1724,0.1708,0.1722,0.1722,0.1722,0.1722,0,0.1778,0.177,0.177,0.1765,0.1756,0.1757,0.1749,0.1747,0.1744,0.1739,0.1741,0.1736,0.1736,0.1731,0.1731,0.1724,0.1722,0.1722,0.1722,0.1722,0.1722,0.1719,0.172,0.1722,0.1722,0.1722,0.1722,0,0.1762,0.1762,0.1753,0.1751,0.175,0.1744,0.1742,0.1737,0.1736,0.173,0.1728,0.1727,0.1722,0.1722,0.1715,0.1715,0.1706,0.1707,0.1708,0.1708,0.1703,0.1703,0.1685,0.1683,0.1698,0.1698,0.1698,0,0.1752,0.1746,0.1743,0.174,0.1738,0.1733,0.173,0.1731,0.1728,0.1724,0.172,0.1715,0.1711,0.1703,0.1701,0.1697,0.1698,0.1692,0.1697,0.1697,0.1698,0.1698,0.1698,0.169,0.169,0.169,0.169,0,0.1734,0.1734,0.173,0.1726,0.1722,0.1719,0.1716,0.1713,0.1714,0.1711,0.1705,0.1702,0.1697,0.1692,0.1688,0.1687,0.1688,0.1689,0.1687,0.1686,0.1687,0.1687,0.1705,0.1689,0.1689,0.1689,0.1689,0.1689,0.172,0.1716,0.1714,0.1709,0.1707,0.1705,0.1701,0.17,0.1696,0.1692,0.1693,0.1687,0.1685,0.168,0.1679,0.1675,0.1677,0.1675,0.1674,0.1673,0.1673,0.1688,0.1674,0.1674,0.1674,0.1674,0.1674,0,0.1702,0.1702,0.1698,0.1694,0.1691,0.1694,0.1691,0.1688,0.1683,0.1681,0.1678,0.1673,0.1669,0.1668,0.1664,0.1662,0.1662,0.1661,0.1661,0.166,0.1671,0.1673,0.166,0.166,0.166,0.166,0.166,0.166,0.1693,0.1685,0.1686,0.1679,0.1678,0.1673,0.1671,0.1669,0.1668,0.1662,0.1659,0.1659,0.1658,0.1655,0.1651,0.1651,0.165,0.1648,0.1648,0.1658,0.1659,0.1661,0.1662,0.1647,0.1647,0.1638,0.1638,0.1638]},{"header":{"parameterUnit":"m.s-1","parameterCategory":1,"la1":30.2991,"la2":30.254,"lo1":-89.0895,"lo2":-89.0444,"dy":0.0017,"dx":0.0017,"nx":28,"ny":28,"refTime":"2023-10-07T21:00:00:Z","depth":0,"parameterNumber":3,"parameterNumberName":"V-component_of_WINDS"},"data":[0,0,0,0,0,0,0,0,0,0,0,0,0,0,0,0,0,0,0,0,0,0,0,0,0,0,0,0,0,0,0,0,0,0,0,0,0,0,0,0,0,0,0,0,0,0,0,0,0,0,0,0,0,0,0,0,0,0,-7.095,-7.0951,0,-7.1088,-7.109,-7.1092,-7.1011,-7.1007,-7.1004,-7.1,-7.1134,-7.1141,-7.1148,0,0,0,0,0,0,0,0,0,0,0,0,0,-7.0607,-7.0614,-7.095,-7.0951,-7.0953,-7.1088,-7.109,-7.1092,-7.1012,-7.1007,-7.1003,-7.0998,-7.1132,-7.114,-7.1149,0,0,0,0,0,0,0,0,0,0,0,0,0,-7.0752,-7.0616,-7.0949,-7.093,-7.0929,-7.1088,-7.109,-7.1092,-7.1013,-7.1007,-7.1001,-7.0996,-7.1129,-7.1139,-7.115,-7.1333,0,0,-7.1183,-7.1188,0,0,0,0,0,0,0,0,-7.0744,-7.0765,-7.0931,-7.0931,-7.0931,-7.1027,-7.1018,-7.1173,-7.1015,-7.0981,-7.1,-7.0993,-7.1103,-7.1115,-7.1154,-7.1339,-7.1345,-7.1184,-7.119,-7.1195,-7.1198,0,0,0,0,0,0,0,-7.0734,-7.0758,-7.1004,-7.0933,-7.0934,-7.0911,-7.0925,-7.1047,-7.1072,-7.0983,-7.0978,-7.0996,-7.1101,-7.1143,-7.1156,-7.1347,-7.1184,-7.1193,-7.12,-7.1204,-7.1689,-7.1695,0,0,0,0,0,0,-7.0726,-7.075,-7.1,-7.1008,-7.0822,-7.0922,-7.0938,-7.1002,-7.1071,-7.1076,-7.1001,-7.0992,-7.1128,-7.1144,-7.1161,-7.1379,-7.1195,-7.1205,-7.1211,-7.1683,-7.169,-7.1697,0,0,0,0,0,0,-7.0719,-7.0749,-7.0994,-7.0878,-7.0908,-7.0934,-7.1007,-7.1008,-7.105,-7.1084,-7.1087,-7.104,-7.1124,-7.1145,-7.1291,-7.1383,-7.121,-7.122,-7.1675,-7.1685,-7.1694,-7.1818,0,0,0,0,0,0,-7.071,-7.0747,-7.0819,-7.088,-7.0914,-7.1125,-7.1012,-7.1015,-7.107,-7.1059,-7.1122,-7.1126,-7.1121,-7.1276,-7.1302,-7.1394,-7.1228,-7.1667,-7.1679,-7.1691,-7.1806,-7.1831,-7.1852,0,0,0,0,0,-7.0698,-7.0847,-7.0823,-7.0854,-7.1005,-7.1131,-7.115,-7.1143,-7.1077,-7.1148,-7.117,-7.1124,-7.1369,-7.1291,-7.132,-7.1417,-7.1661,-7.1676,-7.169,-7.1796,-7.1826,-7.1852,0,0,0,0,0,0,-7.0793,-7.0855,-7.0829,-7.1003,-7.1063,-7.1117,-7.1206,-7.1175,-7.1253,-7.1239,-7.1225,-7.124,-7.1392,-7.1419,-7.1332,-7.1598,-7.1504,-7.1525,-7.1575,-7.1604,-7.1627,-7.1616,-7.1237,0,0,0,0,0,-7.0834,-7.0934,-7.0982,-7.113,-7.1162,-7.118,-7.1234,-7.1224,-7.1284,-7.1308,-7.1341,-7.1399,-7.1488,-7.1547,-7.1632,-7.181,-7.1821,-7.1891,-7.1914,-7.1933,-7.195,-7.2046,-7.2077,-7.1745,-7.1745,-7.1744,0,0,-7.092,-7.0966,-7.103,-7.1151,-7.1196,-7.1297,-7.1201,-7.1312,-7.1386,-7.1324,-7.1464,-7.1491,-7.1554,-7.1717,-7.179,-7.1744,-7.2045,-7.1951,-7.1966,-7.1973,-7.2064,-7.2095,-7.2123,-7.1755,-7.1753,-7.1751,0,0,-7.1129,-7.1174,-7.1303,-7.1351,-7.1422,-7.1433,-7.1464,-7.1524,-7.154,-7.1681,-7.1636,-7.1723,-7.1878,-7.1925,-7.1969,-7.2197,-7.2157,-7.2224,-7.2344,-7.2437,-7.2464,-7.2487,-7.2567,-7.2596,-7.2242,-7.2243,-7.2243,0,-7.1226,-7.1379,-7.1372,-7.1488,-7.1542,-7.1493,-7.1622,-7.1668,-7.1761,-7.1798,-7.1746,-7.194,-7.1979,-7.2152,-7.2208,-7.2246,-7.2279,-7.2217,-7.2461,-7.2484,-7.2505,-7.2582,-7.2612,-7.225,-7.2249,-7.2249,-7.2248,0,-7.1495,-7.1602,-7.1697,-7.1792,-7.1856,-7.1978,-7.1987,-7.2053,-7.2037,-7.2053,-7.2196,-7.2242,-7.2335,-7.2375,-7.236,-7.2546,-7.2515,-7.2463,-7.2368,-7.2545,-7.2616,-7.2645,-7.2261,-7.2259,-7.2256,-7.2254,0,0,-7.1765,-7.1857,-7.1892,-7.1934,-7.2009,-7.209,-7.2209,-7.2302,-7.2358,-7.2424,-7.2522,-7.2655,-7.2607,-7.2657,-7.2647,-7.2729,-7.2905,-7.2666,-7.2667,-7.2708,-7.3112,-7.315,-7.3185,-7.2879,-7.2885,-7.2889,-7.3106,0,-7.1978,-7.2189,-7.2186,-7.238,-7.2478,-7.2434,-7.2536,-7.2592,-7.261,-7.2694,-7.2712,-7.2806,-7.2736,-7.2766,-7.2845,-7.2867,-7.2986,-7.2851,-7.2968,-7.2972,-7.2953,-7.3222,-7.3263,-7.3466,-7.3134,-7.3139,-7.3142,0,-7.2254,-7.2333,-7.2538,-7.2599,-7.2639,-7.2733,-7.2818,-7.29,-7.2961,-7.2968,-7.3025,-7.3002,-7.312,-7.3023,-7.3184,-7.3093,-7.3141,-7.3158,-7.3166,-7.3176,-7.3067,-7.3238,-7.353,-7.356,-7.3186,-7.3183,-7.3179,0,-7.2431,-7.2587,-7.273,-7.2768,-7.2842,-7.2909,-7.2942,-7.2998,-7.3055,-7.3129,-7.3165,-7.3251,-7.3297,-7.3363,-7.3363,-7.3293,-7.3526,-7.3429,-7.3533,-7.3533,-7.3583,-7.358,-7.3886,-7.3616,-7.3615,-7.3614,-7.3614,0,-7.2668,-7.2795,-7.281,-7.2898,-7.3038,-7.3033,-7.3171,-7.3197,-7.3248,-7.3338,-7.3304,-7.3389,-7.3384,-7.3469,-7.3469,-7.3602,-7.3623,-7.3631,-7.3629,-7.3634,-7.3633,-7.3664,-7.3649,-7.3622,-7.3621,-7.3619,-7.3618,0,-7.2888,-7.2904,-7.3057,-7.3116,-7.3134,-7.3234,-7.3283,-7.3365,-7.338,-7.3495,-7.3521,-7.3545,-7.3643,-7.365,-7.3763,-7.3763,-7.3924,-7.3907,-7.3905,-7.3901,-7.4005,-7.3995,-7.4341,-7.4385,-7.4087,-7.409,-7.4092,0,-7.3038,-7.3135,-7.3206,-7.3265,-7.3304,-7.3399,-7.3458,-7.3456,-7.3518,-7.3596,-7.3668,-7.3764,-7.3841,-7.4,-7.4025,-7.4111,-7.4095,-7.4211,-7.4108,-7.4109,-7.4096,-7.409,-7.4099,-7.423,-7.4234,-7.4236,-7.4238,0,-7.3302,-7.3306,-7.3393,-7.3484,-7.3555,-7.3625,-7.369,-7.374,-7.3746,-7.3817,-7.3919,-7.3979,-7.4096,-7.4191,-7.4275,-7.4306,-7.4273,-7.4271,-7.4299,-7.4304,-7.4299,-7.4302,-7.3958,-7.4263,-7.426,-7.4258,-7.4257,-7.4256,-7.3491,-7.3576,-7.3639,-7.3737,-7.3787,-7.3849,-7.3929,-7.3956,-7.4042,-7.4139,-7.4132,-7.4245,-7.4302,-7.4413,-7.4451,-7.4538,-7.4498,-7.4539,-7.455,-7.456,-7.457,-7.4286,-7.4553,-7.4552,-7.4551,-7.4551,-7.455,0,-7.3753,-7.3792,-7.3883,-7.3977,-7.4054,-7.4019,-7.409,-7.4155,-7.4256,-7.4315,-7.4392,-7.4508,-7.4601,-7.4634,-7.4723,-7.4786,-7.4773,-7.4809,-7.4804,-7.4811,-7.4601,-7.4567,-7.4818,-7.4818,-7.4818,-7.4818,-7.4818,-7.4818,-7.3899,-7.4039,-7.405,-7.4214,-7.4251,-7.4364,-7.4407,-7.4464,-7.451,-7.4644,-7.4721,-7.4743,-7.4791,-7.4884,-7.4966,-7.4973,-7.5007,-7.505,-7.505,-7.4853,-7.4826,-7.48,-7.4769,-7.5058,-7.5058,-7.5253,-7.5255,-7.5257]}]]